Location: Alpha Ridge Park
(39.3209°N, 76.9128°W)
Time: 15:46:31
(UTC-04:00)

S-56A Canister/Altair - Pass Details

Date: 26 May 2019
Orbit: 633 x 2499 km, 38.9° (Epoch: 23 June)

Event Time Altitude Azimuth Distance (km) Brightness Sun altitude
Rises 02:33:20 0° 253° (WSW) 3,260 - -26.1°
Reaches altitude 10° 02:35:27 10° 252° (WSW) 2,474 - -26.0°
Exits shadow 02:39:39 54° 239° (WSW) 1,223 8.1 -25.6°
Maximum altitude 02:41:16 78° 167° (SSE) 1,116 8.1 -25.5°
Drops below altitude 10° 02:50:11 10° 83° (E) 3,698 11.4 -24.7°
Sets 02:53:58 0° 82° (E) 4,991 12.2 -24.4°
